#timestamp,LO_Frequency,Hit,StdDev 
1530914415.2,286046996.7,N
1530914435.1,286046996.9,N
1530914436.0,286046996.9,N
1530914455.8,286046997.1,N
1530914475.6,286046997.2,N
1530914495.5,286046997.2,N
1530914515.3,286046997.9,N
1530914535.1,286046995.9,N
1530914555.9,286046994.0,Y
1530914575.7,286046997.3,P
1530914595.6,286046999.6,N
1530914615.4,286046998.3,N
1530914635.2,286046998.4,N
1530914655.1,286046999.0,N
1530914656.0,286046999.0,N
1530914675.8,286046998.2,N
1530914695.7,286046998.4,N
1530914715.5,286046996.6,Y
1530914735.3,286046996.6,P
1530914755.2,286046996.6,P
1530914775.0,286046997.0,P
1530914775.9,286046997.0,Y
1530914795.8,286047000.4,P
1530914815.6,286047001.0,N
1530914835.4,286047001.0,N
1530914855.3,286046999.7,N
1530914875.1,286047002.5,N
1530914895.8,286047004.3,N
1530914915.7,286047004.0,N
1530914935.5,286047001.6,N
1530914955.4,286047002.7,N
1530914975.2,286047000.3,N
1530914995.0,286047000.7,N
1530914995.9,286047000.7,N
1530915015.8,286047002.2,N
1530915035.6,286047004.1,N
1530915055.4,286047002.3,N
1530915075.3,286047000.2,N
1530915095.1,286047002.6,N
1530915115.9,286047002.5,N
1530915135.7,286047002.1,N
1530915155.5,286047002.7,N
1530915175.4,286047004.4,N
1530915195.2,286047001.3,N
1530915215.0,286047002.2,N
1530915215.9,286047002.2,N
1530915235.8,286047002.2,N
1530915255.6,286047002.2,N
1530915275.5,286047004.3,N
1530915295.3,286047002.1,N
1530915315.1,286047004.1,N
1530915335.9,286047001.7,N
1530915355.7,286047001.6,N
1530915375.5,286047002.0,N
1530915395.4,286047000.2,N
1530915415.2,286047000.1,N
1530915435.1,286047002.0,N
1530915436.0,286047002.0,N
1530915455.8,286047001.6,N
1530915475.6,286046999.7,N
1530915495.5,286047002.5,N
1530915515.3,286046999.7,N
1530915565.2,286047002.2,E
1530915575.1,286047000.3,N
1530915576.0,286047000.3,P
1530915595.8,286047000.3,P
1530915615.7,286047002.3,Y
1530915635.5,286047001.2,P
1530915655.3,286046998.4,P
1530915675.2,286046998.3,N
1530915695.0,286046998.6,N
1530915695.9,286046998.6,N
1530915715.8,286046998.8,N
1530915735.6,286046997.1,N
1530915755.4,286046999.6,N
1530915775.3,286046998.9,N
1530915795.1,286046997.5,N
1530915815.8,286046997.8,N
1530915835.7,286046995.3,Y
1530915855.5,286046997.3,P
1530915875.4,286046996.5,P
1530915895.2,286046997.0,P
1530915915.0,286046999.4,N
1530915915.9,286046999.4,N
1530915935.8,286046999.3,N
1530915955.6,286046998.1,N
1530915975.4,286046998.7,N
1530915995.3,286046998.6,N
1530916015.1,286046999.1,N
1530916035.9,286046998.8,N
1530916055.7,286046999.3,N
1530916075.5,286046998.7,N
1530916095.4,286046998.2,N
1530916115.2,286046999.4,N
1530916135.0,286046998.8,N
1530916136.0,286046998.8,N
1530916155.8,286046999.2,N
1530916175.6,286046999.2,N
1530916195.5,286046999.5,N
1530916215.3,286046999.0,N
1530916235.1,286047000.3,N
1530916255.9,286047000.6,N
1530916275.7,286047000.9,N
1530916295.6,286046999.8,N
1530916315.4,286047002.6,N
1530916335.2,286047002.5,N
1530916355.1,286047002.1,N
1530916356.0,286047002.1,N
1530916375.8,286047002.3,N
1530916395.6,286047000.1,N
1530916415.5,286047000.4,N
1530916435.3,286047001.0,N
1530916455.2,286047000.8,N
1530916475.9,286046999.7,N
1530916495.7,286046999.9,N
1530916515.6,286046999.7,N
1530916535.4,286046999.8,N
1530916555.2,286047002.1,N
1530916575.1,286047002.5,N
1530916576.0,286047002.5,N
1530916595.8,286047002.5,N
1530916615.7,286047001.8,N
1530916635.5,286047001.5,N
1530916655.3,286047002.3,N
1530916675.2,286047002.7,N
1530916695.9,286047000.3,N
1530916715.7,286047002.5,N
1530916735.6,286047002.0,N
1530916755.4,286047001.5,N
1530916775.3,286047004.4,Y
1530916795.1,286047001.3,P
1530916796.0,286047001.3,P
1530916815.8,286047003.6,P
1530916835.7,286047004.3,Y
1530916855.5,286047000.5,P
1530916875.3,286047000.3,N
1530916895.2,286047001.0,N
1530916915.0,286046998.5,N
1530916915.9,286046998.5,N
1530916935.8,286047000.9,N
1530916955.6,286047000.0,N
1530916975.4,286047000.2,N
1530916995.3,286046998.6,N
1530917015.1,286046998.6,N
1530917035.8,286047001.0,N
1530917055.7,286046998.2,N
1530917075.5,286047000.1,N
1530917095.4,286046999.8,N
1530917115.2,286047002.4,N
1530917135.0,286047000.3,N
1530917135.9,286047000.3,N
1530917155.8,286046999.9,N
1530917175.6,286047000.0,N
1530917195.4,286047001.2,N
1530917215.3,286047000.6,N
1530917235.1,286047000.4,N
1530917255.9,286046998.1,N
1530917275.7,286047001.0,N
1530917295.5,286047000.3,N
1530917315.4,286046998.9,N
1530917335.2,286046998.3,N
1530917355.0,286046998.6,N
1530917375.3,286047000.7,N
1530917395.1,286047000.5,N
1530917415.9,286046998.3,N
1530917435.7,286046999.9,N
1530917455.5,286047000.2,N
1530917475.4,286047000.1,N
1530917495.2,286047002.7,N
1530917515.0,286047002.8,N
1530917516.0,286047002.8,N
1530917535.8,286047000.0,N
1530917555.6,286047000.8,N
1530917575.5,286046999.4,N
1530917595.3,286046998.6,N
1530917615.1,286046998.2,N
1530917635.9,286046998.7,N
1530917655.7,286046998.6,N
1530917675.6,286047000.0,N
1530917695.4,286046999.4,N
1530917715.2,286046998.8,N
1530917735.1,286046998.7,N
1530917736.0,286046998.7,N
1530917755.8,286046998.4,N
1530917775.7,286046998.5,N
1530917795.5,286046999.1,N
1530917815.3,286046997.2,N
1530917835.2,286046999.0,N
1530917855.0,286046998.1,N
1530917855.9,286046998.1,N
1530917875.8,286047000.8,N
1530917895.6,286047000.4,N
1530917915.4,286046998.5,N
1530917935.3,286047000.3,N
1530917955.1,286047000.9,N
1530917975.9,286047002.8,N
1530917995.7,286047002.4,N
